Location: Niedergestelen
(46.3129°N, 7.7822°E)
Time: 06:38:52
(UTC+00:00)

Meteor 1-10 Rocket - Pass Details

Date: 01 December 2020
Orbit: 836 x 910 km, 81.3° (Epoch: 18 January)

Event Time Altitude Azimuth Distance (km) Brightness Sun altitude
Rises 18:17:24 0° 196° (SSW) 3,426 7.6 -25.7°
Reaches altitude 10° 18:19:51 10° 198° (SSW) 2,483 6.9 -26.1°
Maximum altitude 18:25:27 71° 282° (WNW) 898 4.4 -27.1°
Enters shadow 18:28:26 28° 0° (N) 1,524 5.4 -27.6°
